Location: Croissy-Beaubourg
(48.8283°N, 2.6696°E)
Time: 22:51:05
(UTC+00:00)

Okean 1-7 Rocket - Pass Details

Date: 16 October 2021
Orbit: 617 x 648 km, 82.5° (Epoch: 07 December)

Event Time Altitude Azimuth Distance (km) Brightness Sun altitude
Rises 18:14:20 0° 356° (N) 2,904 7.1 -13.4°
Reaches altitude 10° 18:16:41 10° 3° (N) 1,995 6.2 -13.8°
Maximum altitude 18:20:51 41° 74° (ENE) 912 4.0 -14.5°
Enters shadow 18:24:36 12° 143° (SE) 1,832 5.6 -15.1°
